STARLINK-31308, 59153

Orbit data source: Space-Track

STARLINK-31308, 59153 is a payload satellite owned by SpaceX/Seattle (US) in LEO that was launched on Mon, 04 Mar 2024 UTC via an FALCON 9 launch vehicle from the Air Force Eastern Test Range (AFETR). Payload-class satellites include a variety of spacecraft equipped with specific instruments for various scientific and technological missions. These include communications satellites like Starlink; space stations such as the ISS; scientific satellites like the Hubble; Earth observation satellites from companies like Planet Labs, Umbra, and HawkEye 360; GPS; miniature CubeSats for education and research; and military/defense satellites.

Loading next visibility...
Identifier
59153, 2024-044B
Orbit
LEO
Country
Flag of USUS
Related business
Manufacturer
SpaceX/Seattle
Mission
Operational Commercial Communications
Bus & Motor
STARLINK V2M, Unknown motor
Mass
730 kg wet, ~700 kg dry
Launch date (UTC)
2024-03-04 (2 years ago)
Launch vehicle
FALCON 9
Launch site
Air Force Eastern Test Range (AFETR)
Object type
Payload
Rocket body
Debris
Shape & HBR
Box + 2 Pan, 14.5 m
Radar Cross Section
33.884 m², Large (>1 m²)

Expand to show TLE details & history
Last TLE update: 13 hours ago

TLE from 13 hours ago
0 STARLINK-31308
1 59153U 24044B   25251.04325346  .00000265  00000-0  19144-4 0  9995
2 59153  43.0034  11.6819 0001064 266.9276  93.1454 15.27584026 86217
Epoch: 2025-09-08T01:02Z
TLE epoch observation values (Epoch: 2025-09-08T01:02:17.098Z)
Latitude
-0.00003°
Longitude
8.75658°
Altitude
482.853 km
Speed
7.626 km/s
True Right ascension
00h 46m 43s
True Declination
0° 00' 00"
Sunlit
Object was in full shadow at epoch
Visualization orbit readout
Latitude
Unknown
Longitude
Unknown
Altitude
Unknown
Speed
Unknown
Apparent Right ascension
Unknown
Apparent Declination
Unknown
Sunlit
N/A
Visualization observer readout
Local Sidereal Time
06:22:41
Azimuth
Unknown
Elevation
Unknown
Doppler factor
Unknown
Orbital elements
Apogee altitude
485.712 km
Perigee altitude
484.251 km
Semi-major axis
6,863.119 km
Eccentricity
0.00011
Inclination
43.0034°
RAAN
11.6819°
Arg. of periapsis
266.9276°
True anomaly
93.15757°
Mean anomaly
93.1454°
Eccentric anomaly
93.15149°
Mean motion
3.81734 °/min
Orbital period
94.31 mins
BSTAR
0.000019144
Loading maneuver chart data...
Computing Atmospheric mass density...
Loading historical data...
Loading historical data...
Loading historical data...
Loading historical data...
Loading historical data...
Loading historical data...
Loading historical data...

Documentation

Showing up to 5 results
|